Temperature
20 20 19 19 19 18 18 18 18 17 17 17 17 17 17 17 16 16 16 16 16 16 16 16 16 16 15 15 15 15 15 14 14 13 13 13 13 13 12 12 12 12 12
20 20 19 19 19 18 18 18 17 17 17 17 17 16 16 16 16 16 16 16 16 16 16 16 15 15 15 15 15 15 14 14 14 13 13 12 12 12 12 12 12 12 12
20 19 19 19 18 18 18 17 17 17 17 16 16 16 16 16 16 16 16 16 16 15 15 15 15 15 15 15 15 14 14 14 13 13 13 12 12 12 12 12 11 11 11
20 19 19 19 18 18 17 17 17 17 16 16 16 16 16 16 15 15 15 15 15 15 15 15 15 15 14 14 14 14 13 13 13 13 12 12 12 12 11 11 11 11 11
20 19 19 19 18 18 17 17 17 17 16 16 16 16 16 15 15 15 15 15 15 15 14 14 14 14 14 14 14 13 13 13 13 13 12 12 12 11 11 11 11 11 10
20 19 19 19 18 18 17 17 17 16 16 16 16 15 15 15 15 15 15 15 15 14 14 14 14 13 13 13 13 13 13 13 13 12 12 12 11 11 11 11 11 10 10
20 19 19 18 18 18 17 17 16 16 16 16 15 15 15 15 14 14 14 14 14 14 14 14 13 13 13 13 13 12 12 12 12 12 12 11 11 11 11 11 10 10 10
19 19 18 18 18 17 17 16 16 16 16 16 15 15 15 14 14 14 14 14 14 14 13 13 13 13 13 13 12 12 12 12 12 11 11 11 11 11 11 10 10 10 10
19 19 18 18 18 17 17 16 16 16 15 15 15 15 15 14 14 14 14 14 13 13 13 13 13 12 12 12 12 12 12 11 11 11 11 11 11 11 10 10 10 10 9
19 19 18 18 17 17 17 16 16 15 15 15 15 14 14 14 14 13 13 13 13 13 13 12 12 12 12 12 12 12 11 11 11 11 11 10 10 10 10 10 10 10 9
19 18 18 17 17 17 16 16 15 15 15 14 14 14 14 14 13 13 13 13 13 13 12 12 12 12 12 12 11 11 11 11 11 11 10 10 10 10 10 10 9 9 9
19 18 18 17 17 16 16 15 15 15 14 14 14 14 14 14 13 13 13 13 12 12 12 12 12 12 11 11 11 11 11 11 11 10 10 10 10 9 9 9 9 9 9
18 18 17 17 16 16 16 15 15 15 14 14 14 14 14 13 13 13 13 12 12 12 12 12 11 11 11 11 11 11 11 10 10 10 10 10 10 9 9 9 9 9 8
18 17 17 16 16 15 15 15 15 14 14 14 14 14 14 13 13 13 12 12 12 12 12 11 11 11 11 11 11 10 10 10 10 10 10 9 9 9 9 9 9 8 8
17 17 16 16 15 15 15 15 14 14 14 14 14 14 14 13 13 13 13 12 12 12 12 11 11 11 11 11 10 10 10 10 9 9 9 9 9 9 9 8 8 8 8
17 17 16 16 15 15 15 14 14 14 14 14 13 13 13 13 13 12 12 12 12 11 11 11 11 11 11 10 10 10 10 9 9 9 9 9 9 9 8 8 8 8 8
17 17 16 16 15 15 14 14 14 14 14 13 13 13 13 13 12 12 12 11 11 11 11 11 11 11 10 10 10 10 9 9 9 9 9 8 8 8 8 8 8 8 8
17 16 16 16 15 15 14 14 14 14 14 13 13 13 13 12 12 12 12 11 11 11 11 11 11 10 10 10 9 9 9 9 8 8 8 8 8 8 8 8 8 8 7
16 16 16 15 15 15 14 14 14 14 14 13 13 13 13 12 12 12 11 11 11 11 11 11 10 10 10 9 9 9 9 8 8 8 8 8 8 8 8 8 7 7 7
16 16 15 15 15 14 14 14 14 14 13 13 13 13 13 12 12 12 11 11 11 11 10 10 10 10 9 9 9 9 8 8 8 8 8 8 8 8 8 7 7 7 7
16 15 15 15 15 14 14 14 14 14 13 13 13 13 13 12 12 12 11 11 11 11 11 10 10 9 9 9 9 8 8 8 8 8 8 8 8 7 7 7 7 7 7
16 15 15 15 15 14 14 14 14 13 13 13 13 12 12 12 12 11 11 11 11 11 10 10 9 9 9 9 8 8 8 8 8 8 8 7 7 7 7 7 7 7 7
15 15 15 15 14 14 14 14 13 13 13 13 13 12 12 12 11 11 11 11 11 10 10 10 9 9 9 9 8 8 8 8 8 7 7 7 7 7 7 7 7 7 6
15 15 15 14 14 14 14 13 13 13 13 13 12 12 12 11 11 11 11 10 10 10 10 9 9 9 9 9 8 8 8 8 7 7 7 7 7 7 7 6 6 6 6
15 14 14 14 14 14 13 13 13 13 13 12 12 12 12 11 11 11 10 10 10 10 9 9 9 9 9 8 8 8 8 7 7 7 7 7 7 6 6 6 6 6 6
14 14 14 13 13 13 13 13 13 12 12 12 12 12 11 11 11 10 10 10 10 9 9 9 9 9 8 8 8 8 8 7 7 7 7 6 6 6 6 6 6 6 5
Wind_Speed
4 4 3 3 3 2 2 2 2 1 2 2 2 2 2 2 1 2 1 1 1 1 1 1 0 1 2 2 2 3 2 3 4 1 1 1 2 4 4 5 6 6 6
5 4 3 3 3 3 2 2 2 2 2 2 2 3 2 2 2 2 1 1 1 0 0 1 1 1 2 2 3 3 3 2 4 4 1 1 2 2 3 4 5 6 6
5 5 4 4 4 3 2 2 3 3 3 3 3 3 2 2 2 2 1 1 1 0 0 1 1 2 2 2 3 3 3 3 3 4 2 1 1 2 3 3 5 4 5
6 6 5 4 4 3 3 4 4 4 4 3 3 3 2 2 2 2 2 2 2 2 2 2 2 2 2 2 3 3 4 4 4 4 3 2 1 1 2 2 2 2 3
7 6 5 4 4 4 4 4 4 4 4 3 3 3 3 2 2 2 2 3 3 3 3 3 3 3 3 3 3 3 4 4 4 4 3 2 1 2 2 2 2 2 2
7 6 5 5 5 4 4 4 4 4 3 4 3 3 3 3 3 3 4 3 3 3 3 3 3 4 5 5 5 5 5 5 5 4 2 3 2 2 2 2 3 2 1
7 6 6 6 5 5 5 4 4 3 3 4 3 3 3 3 4 5 5 4 4 3 3 3 3 3 5 5 7 8 6 5 4 4 4 3 3 3 3 3 3 2 1
7 6 6 6 6 5 5 4 3 3 3 2 2 2 3 3 4 5 6 5 5 4 3 3 3 3 4 5 6 6 5 5 4 3 3 2 2 3 3 3 4 3 2
7 7 6 6 6 6 6 5 3 3 3 2 2 3 3 2 4 5 6 4 4 4 4 4 4 4 5 7 7 6 5 4 6 8 7 6 6 6 6 4 4 3 1
8 7 6 6 7 7 6 5 3 3 3 3 3 2 2 2 3 4 5 4 4 3 3 4 4 5 6 7 6 5 5 3 3 5 6 6 6 5 5 3 3 3 1
7 7 6 6 7 6 6 4 5 4 4 3 3 2 2 2 3 4 5 3 3 2 2 2 2 5 6 6 5 4 4 4 4 4 4 4 4 3 3 2 1 2 2
8 7 7 6 6 6 6 5 5 5 5 4 3 2 2 2 2 2 3 3 3 3 2 1 1 4 5 5 4 4 6 6 4 3 3 2 2 2 2 2 2 1 1
8 8 7 6 5 6 7 7 5 5 4 3 3 2 1 1 1 2 2 3 3 2 1 2 3 5 6 5 5 5 5 3 3 3 2 1 0 0 1 1 2 2 3
9 8 7 7 6 5 4 5 5 5 5 4 3 3 2 1 1 1 1 2 2 3 3 4 6 7 6 5 4 3 3 2 2 2 1 1 1 1 1 1 1 1 1
9 8 7 7 7 6 4 4 5 4 5 6 5 5 4 3 4 4 3 2 2 3 3 3 3 3 3 3 2 2 2 2 2 1 1 1 1 1 1 1 1 1 0
9 8 7 6 6 6 5 3 2 2 4 5 5 5 4 4 4 5 4 4 4 6 5 3 2 2 2 2 1 1 1 1 1 1 1 1 1 1 0 1 0 0 1
9 9 7 7 7 7 6 6 4 1 2 3 4 5 5 5 5 5 5 5 5 6 3 3 3 3 2 2 2 1 1 1 1 1 1 1 1 1 1 1 1 1 1
9 9 8 7 7 7 7 6 5 5 3 2 2 3 5 5 6 5 6 5 3 2 2 3 3 3 3 2 2 2 2 1 1 1 1 1 1 1 1 1 2 2 2
8 7 7 6 6 6 6 5 5 5 5 3 2 1 3 4 4 5 6 3 3 3 3 3 3 3 3 3 3 2 2 2 2 2 2 2 2 2 2 2 2 3 3
7 9 8 6 6 6 6 5 5 5 5 5 5 4 3 3 3 3 4 4 4 4 4 4 4 4 4 3 3 3 2 2 2 2 2 2 3 3 3 3 3 3 3
6 7 9 7 6 6 6 6 6 6 6 6 5 5 7 5 5 5 5 5 5 5 4 4 4 4 4 3 3 3 3 3 3 3 3 3 3 3 3 3 3 3 3
6 6 6 6 5 5 5 5 5 6 6 6 4 4 7 5 5 5 5 5 5 4 4 4 4 4 4 4 4 4 4 3 3 3 3 3 3 3 3 3 3 3 3
6 6 5 5 5 6 6 5 5 6 5 5 5 4 5 5 5 5 5 5 5 4 5 5 5 5 5 5 6 5 5 5 5 5 4 4 4 4 4 4 4 4 4
6 6 6 5 5 5 5 5 5 5 5 5 5 5 5 5 5 5 5 4 4 5 5 5 5 6 6 6 6 7 7 8 8 7 6 5 5 4 4 5 5 5 5
5 5 5 5 5 5 5 5 5 5 5 5 5 5 5 4 4 4 4 4 4 4 5 5 5 5 6 7 6 6 7 8 8 7 6 5 5 5 5 5 5 5 5
5 5 5 5 5 5 5 5 5 5 5 4 4 4 4 4 4 4 4 4 4 4 4 4 5 6 6 6 7 7 8 8 8 8 7 5 5 5 5 5 6 5 5
Wind_Direction
167 166 165 163 154 138 139 140 138 109 90 84 79 74 67 68 74 88 80 68 76 37 32 76 43 141 143 143 139 138 143 149 152 155 78 87 93 91 81 84 80 76 75
162 156 157 140 128 130 131 125 115 106 92 94 88 78 65 57 58 81 72 54 84 66 357 109 98 106 115 130 137 140 147 153 149 148 120 86 81 102 91 82 74 76 79
156 154 150 141 136 135 126 107 104 102 91 84 82 78 68 61 53 56 71 64 70 53 112 122 117 111 103 112 130 137 140 139 131 141 143 103 85 102 88 78 70 63 75
147 147 149 153 148 138 123 112 105 102 98 91 84 78 74 67 57 58 69 68 64 55 59 79 95 121 136 130 133 140 134 128 128 133 136 133 122 124 120 117 90 65 69
146 149 155 146 131 121 115 111 106 104 103 98 89 73 64 65 56 66 81 84 79 69 58 60 75 94 102 118 133 141 139 135 135 131 137 135 139 159 166 162 141 115 75
150 153 147 137 132 129 125 118 111 105 100 91 82 76 64 58 62 87 100 92 86 83 74 63 70 70 83 90 107 120 134 141 144 141 149 164 178 179 166 159 154 146 138
150 149 147 145 143 144 139 125 120 116 106 96 87 84 74 60 72 82 92 97 88 79 75 70 71 68 83 93 90 86 85 94 124 154 158 174 180 185 170 157 154 142 164
150 152 154 154 151 146 139 135 127 115 108 101 94 96 87 70 79 88 94 85 77 68 68 80 90 81 91 104 100 88 79 73 89 111 134 155 159 159 166 166 157 126 85
159 164 164 160 158 156 156 152 144 132 115 101 95 96 91 70 80 98 98 90 79 62 55 64 89 91 91 103 104 100 86 68 74 86 91 91 97 113 129 127 132 136 144
174 173 165 159 158 162 161 153 143 135 127 120 98 88 93 82 77 99 101 99 87 70 56 54 71 93 99 105 111 113 105 87 80 77 70 68 77 95 111 127 154 164 168
166 157 154 158 159 156 146 141 138 130 123 116 106 82 73 68 73 84 97 105 116 106 87 67 57 91 98 100 105 113 125 120 102 89 76 65 63 63 64 74 120 160 176
153 152 154 155 156 151 144 140 138 136 133 128 119 94 57 57 79 92 96 100 119 124 135 133 97 104 101 104 108 112 114 110 104 94 82 67 60 49 36 46 70 84 84
151 156 156 152 149 151 152 150 144 145 148 149 148 147 132 53 55 78 96 102 115 111 105 137 124 116 103 96 98 110 115 114 112 102 99 88 58 13 45 59 62 68 58
158 160 158 156 153 148 148 155 158 163 165 166 171 179 182 169 162 138 119 114 113 93 85 91 92 96 93 89 85 90 98 115 127 130 141 108 64 72 76 81 73 39 31
161 163 162 163 160 155 155 166 176 184 187 181 188 186 183 200 220 192 163 161 158 146 115 92 83 83 86 82 77 77 84 100 107 113 127 111 87 92 73 59 74 81 27
165 169 171 169 166 164 160 145 110 165 180 185 183 181 198 203 187 179 181 172 152 140 123 120 131 135 144 148 140 122 98 108 143 152 150 151 159 165 141 67 74 172 240
171 173 174 174 174 175 176 175 173 123 118 158 182 191 195 187 185 181 175 160 147 142 139 157 169 177 178 175 172 173 194 212 184 174 189 200 193 201 207 222 227 252 259
171 175 176 179 180 182 185 185 182 183 191 209 208 203 197 192 187 180 161 136 124 143 174 180 187 187 185 183 185 190 199 194 186 201 212 214 203 205 218 244 249 255 260
172 175 177 178 181 183 184 184 187 190 195 196 185 181 175 168 164 161 156 166 180 188 193 195 196 190 189 191 196 202 206 212 215 217 226 227 222 219 231 242 247 246 249
177 176 174 178 181 183 186 189 193 196 198 201 204 197 164 153 167 176 185 196 196 198 196 198 200 199 199 200 200 203 208 218 225 228 236 236 231 227 237 244 246 245 248
175 178 178 180 185 188 192 196 197 198 203 206 210 196 178 186 192 194 198 202 203 204 201 199 199 204 207 204 204 208 214 226 232 237 244 246 241 239 241 240 242 246 253
173 178 185 186 185 190 194 194 194 199 203 203 200 190 184 191 197 199 201 205 209 207 201 195 202 209 210 207 206 209 220 232 239 241 248 251 247 246 245 241 242 245 249
174 175 176 179 184 184 187 191 193 197 199 197 190 185 186 195 199 202 204 205 203 203 201 200 205 213 215 214 213 212 222 234 238 236 242 247 245 241 240 243 244 250 250
174 174 175 176 178 182 185 188 191 194 194 192 189 189 193 197 199 201 205 205 205 205 203 205 211 215 214 213 218 224 232 239 238 234 233 241 246 248 246 248 250 251 251
169 172 175 178 180 181 182 183 186 189 189 192 194 194 195 194 198 204 205 202 200 203 206 210 214 218 220 222 227 236 245 245 241 239 232 232 243 249 252 254 256 258 253
168 173 178 179 179 180 182 185 189 190 191 193 195 194 194 192 194 198 198 195 198 203 206 210 215 219 224 230 239 245 247 247 247 242 233 234 242 249 253 257 257 252 253
Height
1545 1546 1548 1548 1549 1550 1550 1551 1551 1551 1550 1550 1550 1550 1549 1549 1549 1549 1548 1548 1548 1548 1547 1547 1547 1547 1547 1547 1547 1547 1548 1548 1548 1550 1551 1552 1553 1553 1554 1554 1553 1553 1552
1543 1544 1546 1547 1548 1548 1549 1549 1549 1549 1549 1549 1549 1548 1548 1548 1548 1548 1547 1547 1546 1546 1545 1545 1545 1545 1544 1545 1545 1546 1546 1547 1547 1548 1549 1550 1551 1552 1552 1553 1553 1552 1552
1542 1543 1545 1546 1546 1547 1547 1548 1548 1548 1548 1548 1548 1547 1547 1547 1547 1547 1546 1546 1545 1544 1544 1543 1543 1543 1543 1543 1544 1544 1545 1545 1546 1547 1547 1549 1550 1551 1551 1551 1551 1551 1551
1540 1542 1543 1544 1545 1546 1547 1547 1547 1547 1547 1547 1547 1547 1546 1546 1546 1546 1545 1544 1544 1543 1543 1543 1542 1542 1542 1542 1543 1543 1543 1544 1545 1546 1546 1547 1548 1549 1549 1550 1550 1550 1550
1539 1541 1542 1543 1544 1545 1546 1546 1546 1546 1546 1546 1546 1546 1546 1545 1545 1545 1544 1544 1543 1543 1542 1542 1542 1542 1542 1542 1542 1542 1542 1543 1544 1544 1545 1546 1546 1547 1547 1548 1548 1549 1549
1538 1539 1541 1542 1543 1544 1545 1545 1546 1546 1546 1546 1546 1545 1545 1545 1545 1545 1544 1543 1543 1542 1542 1542 1542 1542 1541 1542 1542 1542 1543 1543 1543 1544 1544 1544 1545 1545 1546 1546 1547 1547 1548
1536 1538 1540 1541 1542 1543 1544 1545 1545 1545 1545 1545 1545 1545 1545 1545 1544 1544 1544 1543 1543 1542 1542 1542 1542 1541 1541 1541 1542 1542 1542 1543 1543 1544 1543 1543 1544 1544 1545 1545 1546 1546 1547
1535 1537 1539 1540 1541 1543 1543 1544 1545 1545 1545 1545 1545 1545 1544 1544 1544 1544 1544 1543 1542 1542 1542 1542 1542 1542 1542 1542 1542 1542 1542 1542 1543 1543 1543 1543 1544 1544 1544 1545 1546 1546 1547
1533 1535 1537 1538 1540 1541 1542 1543 1544 1545 1545 1545 1545 1545 1544 1544 1544 1544 1544 1543 1543 1542 1542 1542 1542 1542 1542 1542 1542 1542 1542 1542 1543 1543 1543 1544 1544 1544 1544 1545 1545 1545 1545
1532 1534 1536 1537 1538 1540 1541 1542 1543 1544 1544 1544 1545 1545 1544 1544 1544 1544 1544 1544 1543 1543 1543 1543 1543 1543 1543 1543 1543 1543 1542 1543 1543 1543 1543 1544 1544 1544 1544 1544 1544 1544 1544
1530 1532 1534 1536 1537 1538 1539 1541 1542 1543 1543 1544 1544 1544 1544 1544 1544 1544 1544 1544 1544 1544 1543 1543 1543 1544 1544 1543 1543 1544 1544 1544 1544 1544 1544 1544 1544 1544 1544 1544 1543 1543 1543
1528 1530 1532 1534 1535 1536 1538 1539 1540 1541 1542 1543 1543 1543 1544 1544 1544 1544 1545 1545 1545 1544 1544 1543 1543 1544 1544 1544 1544 1544 1544 1544 1544 1544 1544 1544 1544 1544 1544 1543 1543 1543 1543
1526 1528 1530 1531 1533 1534 1536 1537 1538 1539 1540 1541 1542 1542 1543 1544 1544 1544 1544 1544 1544 1544 1543 1542 1543 1544 1544 1544 1544 1545 1545 1544 1544 1544 1544 1544 1544 1544 1544 1543 1543 1543 1542
1524 1526 1528 1529 1531 1532 1534 1535 1536 1537 1538 1539 1540 1541 1542 1542 1543 1543 1543 1544 1544 1544 1543 1543 1543 1544 1544 1544 1544 1545 1544 1544 1544 1544 1544 1544 1544 1544 1543 1543 1543 1542 1541
1522 1524 1526 1527 1529 1530 1532 1533 1534 1536 1537 1538 1539 1540 1541 1541 1542 1542 1542 1543 1543 1544 1543 1543 1543 1543 1543 1544 1544 1544 1544 1544 1544 1544 1544 1544 1544 1543 1543 1542 1542 1541 1540
1519 1521 1523 1525 1526 1528 1530 1531 1533 1534 1536 1537 1538 1539 1539 1540 1541 1541 1541 1542 1543 1543 1543 1543 1543 1543 1543 1543 1543 1544 1543 1543 1543 1544 1544 1543 1543 1542 1541 1541 1541 1540 1539
1517 1519 1521 1522 1524 1525 1527 1529 1530 1532 1534 1535 1536 1537 1538 1538 1539 1540 1540 1541 1541 1541 1541 1541 1542 1542 1543 1543 1543 1542 1542 1543 1543 1543 1542 1542 1541 1541 1540 1540 1539 1538 1538
1514 1516 1518 1520 1521 1523 1525 1527 1528 1530 1531 1532 1533 1534 1535 1536 1537 1538 1539 1539 1539 1539 1539 1540 1540 1541 1541 1541 1541 1541 1541 1541 1541 1541 1540 1540 1540 1539 1539 1538 1537 1537 1536
1511 1513 1515 1517 1519 1521 1523 1524 1526 1528 1529 1530 1531 1532 1533 1534 1535 1536 1536 1536 1537 1537 1538 1538 1539 1539 1539 1539 1539 1539 1539 1539 1539 1539 1538 1538 1538 1537 1537 1536 1535 1534 1533
1509 1511 1513 1515 1517 1518 1520 1522 1523 1525 1526 1527 1528 1529 1530 1531 1531 1532 1533 1534 1534 1535 1536 1536 1537 1537 1537 1537 1537 1537 1537 1536 1536 1536 1536 1536 1535 1535 1534 1533 1533 1532 1531
1506 1508 1510 1512 1514 1515 1517 1519 1520 1522 1523 1523 1525 1526 1527 1528 1529 1530 1531 1531 1532 1533 1533 1534 1534 1534 1534 1535 1534 1534 1534 1534 1534 1533 1533 1533 1532 1532 1531 1531 1530 1529 1528
1503 1505 1507 1508 1510 1512 1514 1516 1517 1518 1520 1520 1521 1523 1524 1525 1526 1527 1528 1529 1529 1530 1531 1531 1531 1531 1531 1532 1531 1531 1531 1531 1530 1530 1529 1529 1529 1528 1528 1527 1526 1525 1525
1500 1502 1504 1505 1507 1509 1511 1512 1514 1515 1516 1517 1519 1519 1520 1521 1522 1523 1524 1525 1526 1527 1527 1528 1528 1528 1528 1528 1528 1528 1528 1527 1527 1526 1526 1525 1525 1524 1524 1523 1522 1521 1521
1498 1499 1500 1502 1504 1506 1508 1509 1511 1512 1513 1514 1515 1516 1517 1518 1519 1520 1521 1522 1523 1523 1524 1524 1524 1524 1524 1524 1524 1524 1524 1524 1523 1522 1522 1521 1521 1520 1519 1519 1518 1517 1517
1495 1496 1498 1499 1501 1503 1505 1506 1508 1509 1510 1511 1512 1513 1514 1515 1516 1517 1518 1519 1519 1520 1520 1520 1521 1521 1521 1521 1521 1520 1520 1520 1519 1518 1517 1517 1516 1515 1514 1514 1513 1513 1512
1492 1494 1496 1497 1499 1500 1502 1503 1505 1506 1507 1508 1509 1510 1511 1512 1512 1513 1514 1515 1516 1516 1516 1517 1517 1517 1517 1517 1517 1516 1516 1515 1515 1514 1513 1512 1511 1510 1509 1509 1508 1508 1507